Weather History for Fayetteville, AR

Change the Weather History Date:

Thursday, November 22, 2012

  Actual Average Record
Temperature  
Mean Temperature 58 °F 45 °F  
Max Temperature 68 °F 56 °F 75 °F (1955)
Min Temperature 48 °F 34 °F 10 °F (1964)
Degree Days  
Heating Degree Days 7 20  
Month to date heating degree days 351  
Since 1 July heating degree days 651  
Growing Degree Days 8 (Base 50)    
Moisture  
Dew Point 44 °F    
Average Humidity 57    
Maximum Humidity 82    
Minimum Humidity 42    
Precipitation  
Precipitation 0.02 in 0.13 in 0.40 in (2010)
Month to date precipitation 3.15  
Year to date precipitation 44.19  
Sea Level Pressure  
Sea Level Pressure 30.07 in    
Wind  
Wind Speed 8 mph (SSW)    
Max Wind Speed 20 mph    
Max Gust Speed 29 mph    
Visibility 10 miles    
Events Thunderstorm    
T = Trace of Precipitation, MM = Missing Value Source: NWS Daily Summary

Daily Weather History Graph

Daily Weather History Graph

Search for Another Location

Airport:

Trip Planner

Search our weather history database for the weather conditions in past years. The results will help you decide how hot, cold, wet, or windy it might be!

Date:

Astronomy

Nov. 22, 2012 Rise Set
Actual Time 7:00 AM CST 5:04 PM CST
Civil Twilight 6:32 AM CST 5:32 PM CST
Nautical Twilight 6:01 AM CST 6:04 PM CST
Astronomical Twilight 5:30 AM CST 6:34 PM CST
Moon 1:42 PM CST (11/22) 1:30 AM CST (11/22)
Length of Visible Light 10h 59m
Length of Day
10h 04m
Waxing Gibbous, 71% of the Moon is Illuminated
Nov 22
Waxing Gibbous
Nov 28
Full
Dec 6
Last Quarter
Dec 13
New
Dec 19
First Quarter

Hourly Weather History & Observations

Time (CST) Temp. Dew Point Humidity Pressure Visibility Wind Dir Wind Speed Gust Speed Precip Events Conditions
12:53 AM 48.9 °F 37.9 °F 66% 30.11 in 10.0 mi Calm Calm - N/A   Clear
1:53 AM 51.1 °F 39.0 °F 63% 30.09 in 10.0 mi Calm Calm - N/A   Clear
2:53 AM 52.0 °F 39.9 °F 63% 30.08 in 10.0 mi South 4.6 mph - N/A   Clear
3:53 AM 54.0 °F 39.9 °F 59% 30.07 in 10.0 mi South 5.8 mph - N/A   Clear
4:53 AM 55.9 °F 39.0 °F 53% 30.07 in 10.0 mi South 12.7 mph - N/A   Clear
5:53 AM 55.0 °F 39.0 °F 55% 30.07 in 10.0 mi South 11.5 mph - N/A   Clear
6:53 AM 55.0 °F 37.9 °F 53% 30.08 in 10.0 mi SSW 11.5 mph - N/A   Clear
7:53 AM 55.9 °F 39.0 °F 53% 30.10 in 10.0 mi South 11.5 mph - N/A   Clear
8:53 AM 57.9 °F 39.9 °F 51% 30.11 in 10.0 mi South 16.1 mph - N/A   Clear
9:53 AM 62.1 °F 41.0 °F 46% 30.11 in 10.0 mi South 16.1 mph 21.9 mph N/A   Clear
10:53 AM 64.0 °F 42.1 °F 45% 30.09 in 10.0 mi South 15.0 mph 21.9 mph N/A   Clear
11:53 AM 68.0 °F 44.1 °F 42% 30.06 in 10.0 mi South 13.8 mph 21.9 mph N/A   Clear
12:53 PM 66.9 °F 43.0 °F 42% 30.02 in 10.0 mi SSW 19.6 mph 28.8 mph N/A   Clear
1:53 PM 66.0 °F 44.1 °F 45% 30.00 in 10.0 mi South 15.0 mph 25.3 mph 0.00 in   Mostly Cloudy
2:53 PM 64.9 °F 44.1 °F 47% 29.99 in 10.0 mi South 16.1 mph 23.0 mph N/A   Clear
3:53 PM 64.0 °F 45.0 °F 50% 29.99 in 10.0 mi South 12.7 mph - N/A   Partly Cloudy
4:53 PM 63.0 °F 45.0 °F 52% 30.01 in 10.0 mi South 10.4 mph - N/A   Scattered Clouds
5:53 PM 63.0 °F 45.0 °F 52% 30.02 in 10.0 mi South 12.7 mph - 0.00 in   Overcast
6:53 PM 62.1 °F 46.9 °F 58% 30.03 in 10.0 mi South 12.7 mph - 0.00 in   Overcast
7:16 PM 57.2 °F 51.8 °F 82% 30.06 in 10.0 mi SW 4.6 mph - 0.02 in Thunderstorm Thunderstorm
7:39 PM 60.8 °F 50.0 °F 68% 30.08 in 10.0 mi West 4.6 mph - 0.02 in   Overcast
7:53 PM 60.1 °F 48.9 °F 67% 30.08 in 10.0 mi WSW 5.8 mph - 0.02 in   Overcast
8:53 PM 59.0 °F 50.0 °F 72% 30.09 in 10.0 mi SSW 4.6 mph - N/A   Overcast
9:53 PM 60.1 °F 48.9 °F 67% 30.10 in 10.0 mi SSW 9.2 mph - N/A   Mostly Cloudy
10:53 PM 59.0 °F 48.0 °F 67% 30.10 in 10.0 mi SW 4.6 mph - N/A   Mostly Cloudy
11:53 PM 59.0 °F 48.9 °F 69% 30.15 in 10.0 mi NW 6.9 mph - N/A   Overcast